Voltar ao catálogo

STARLINK-30100

AtivoComunicaçõesVLEO
NORAD 57623·PAYLOAD·🇺🇸 United States

Lançado Aug 11, 2023 de Cape Canaveral Space Force Station

Loading…

Próximas Passagens (próximas 24 horas)

TLE

AtualizadoSource: CelesTrak SupGP

Época: Sep 14, 2026, 21:59 UTC

1 57623C 23119X   26257.91645833  .00008314  00000+0  30124-3 0  2575
2 57623  42.9994  92.9572 0001351 273.9551 164.9796 15.27563040    14

Acompanhe STARLINK-30100 em tempo real com AllMySat

Download on the App Store